Regional Weather Roundup
Issued by NWS

Current Version | Previous Version | Text Only | Print | Product List | Glossary Off
Versions: 1 2 3 4 5 6 7 8 9 10 11 12 13 14 15 16 17 18 19 20 21 22 23 24 25 26 27 28 29 30 31 32 33 34 35 36 37 38 39 40 41 42 43 44 45 46 47 48 49 50

000
ASUS44 KMEG 311510
RWRTN
TENNESSEE HOURLY STATE WEATHER ROUNDUP
NATIONAL WEATHER SERVICE MEMPHIS TN
1000 AM CDT FRI OCT 31 2014

TNZ002-004-019-021-049-052-054-088>092-311600-
WEST TENNESSEE

CITY           SKY/WX    TMP DP  RH WIND       PRES   REMARKS
MEMPHIS INTL   MOSUNNY   55  46  71 N15G23    30.11R
NWS MEMPHIS      N/A     55 N/A N/A MISG        N/A
JACKSON        PTSUNNY   54  49  83 N12       30.08R
DYERSBURG      CLOUDY    52  37  58 N18G26    30.13R
UNION CITY     CLOUDY    52  45  76 N15       30.10R
PARIS          CLOUDY    50  45  81 N14       30.08R
HUNTINGDON     CLOUDY    51  46  83 N5        30.08R
LEXINGTON      MOSUNNY   55  46  71 N3        30.04S
SAVANNAH       MOSUNNY   54  54 100 VRB5      30.05S
$$

TNZ008-025-027-028-033-062-065-066-311600-
NORTH MIDDLE TENNESSEE

CITY           SKY/WX    TMP DP  RH WIND       PRES   REMARKS
NASHVILLE      CLOUDY    51  47  86 NW5       30.03S
DICKSON        PTSUNNY   48  46  93 N6        30.03R
PORTLAND       CLOUDY    46  45  93 N8        30.02S
CLARKSVILLE    CLOUDY    50  45  83 N9        30.06R
LEBANON        CLOUDY    48  46  93 NW3       30.01
SMYRNA         CLOUDY    52  48  87 N5        30.03F
MURFREESBORO   CLOUDY    50  46  85 N3        30.02S
COOKEVILLE     CLOUDY    48  46  93 CALM      30.00S
LIVINGSTON     CLOUDY    46  43  90 CALM      30.00S
GALLATIN       CLOUDY    48  48 100 NW6       30.03S
CROSSVILLE     CLOUDY    48  41  76 W5        29.99S
ROCKWOOD       CLOUDY    49  41  74 N6        29.97S
$$

TNZ061-075-076-078-094-096-097-311600-
SOUTH MIDDLE TENNESSEE

CITY           SKY/WX    TMP DP  RH WIND       PRES   REMARKS
FAYETTEVILLE   PTSUNNY   48  41  76 N13G24    30.02R
TULLAHOMA      PTSUNNY   48  43  81 NW6       30.02S
WINCHESTER     CLOUDY    48  45  87 CALM      30.02R
MCMINNVILLE    CLOUDY    48  48 100 CALM      30.01S
COLUMBIA       CLOUDY   N/A N/A N/A SW3       30.02R
SHELBYVILLE    CLOUDY    48  46  93 CALM      30.04R
$$

TNZ017-018-042-046-047-311600-
NORTHEAST TENNESSEE

CITY           SKY/WX    TMP DP  RH WIND       PRES   REMARKS
TRI CITIES     PTSUNNY   45  40  82 CALM      29.96F
ELIZABETHTON   PTSUNNY   45  39  81 CALM      29.95F
$$

TNZ012-013-036-069-073-074-311600-
CENTRAL EAST TENNESSEE

CITY           SKY/WX    TMP DP  RH WIND       PRES   REMARKS
KNOXVILLE      CLOUDY    47  42  83 CALM      29.97F
OAK RIDGE      CLOUDY    48  42  80 CALM      29.99F
GATLINBURG     CLOUDY    46  39  76 CALM      29.97S
MORRISTOWN     MOSUNNY   45  41  87 CALM      29.97F
$$

TNZ083-085-099-311600-
SOUTHEAST TENNESSEE

CITY           SKY/WX    TMP DP  RH WIND       PRES   REMARKS
CHATTANOOGA    PTSUNNY   55  43  63 NW7       29.99F
$$

SKY/WX REPORTED AS FAIR MEANS FEW OR NO CLOUDS BELOW
12 THOUSAND FEET.




USA.gov is the U.S. government's official web portal to all federal, state and local government web resources and services.